Year,Month,Day,Hour,Minute,Value (Times are PST for temperature in C)
2018,10,21,00,00,7.90
2018,10,21,00,01,7.90
2018,10,21,00,02,7.80
2018,10,21,00,03,7.80
2018,10,21,00,04,7.80
2018,10,21,00,05,7.80
2018,10,21,00,06,7.80
2018,10,21,00,07,7.70
2018,10,21,00,08,7.70
2018,10,21,00,09,7.70
2018,10,21,00,10,7.70
2018,10,21,00,11,7.70
2018,10,21,00,12,7.60
2018,10,21,00,13,7.60
2018,10,21,00,14,7.60
2018,10,21,00,15,7.60
2018,10,21,00,16,7.60
2018,10,21,00,17,7.50
2018,10,21,00,18,7.50
2018,10,21,00,19,7.50
2018,10,21,00,20,7.50
2018,10,21,00,21,7.50
2018,10,21,00,22,7.50
2018,10,21,00,23,7.40
2018,10,21,00,24,7.40
2018,10,21,00,25,7.40
2018,10,21,00,26,7.40
2018,10,21,00,27,7.40
2018,10,21,00,28,7.40
2018,10,21,00,29,7.40
2018,10,21,00,30,7.40
2018,10,21,00,31,7.40
2018,10,21,00,32,7.30
2018,10,21,00,33,7.30
2018,10,21,00,34,7.30
2018,10,21,00,35,7.30
2018,10,21,00,36,7.30
2018,10,21,00,37,7.30
2018,10,21,00,38,7.30
2018,10,21,00,39,7.30
2018,10,21,00,40,7.30
2018,10,21,00,41,7.30
2018,10,21,00,42,7.30
2018,10,21,00,43,7.30
2018,10,21,00,44,7.20
2018,10,21,00,45,7.20
2018,10,21,00,46,7.20
2018,10,21,00,47,7.20
2018,10,21,00,48,7.20
2018,10,21,00,49,7.20
2018,10,21,00,50,7.20
2018,10,21,00,51,7.20
2018,10,21,00,52,7.20
2018,10,21,00,53,7.20
2018,10,21,00,54,7.20
2018,10,21,00,55,7.10
2018,10,21,00,56,7.10
2018,10,21,00,57,7.10
2018,10,21,00,58,7.10
2018,10,21,00,59,7.10
2018,10,21,01,00,7.10
2018,10,21,01,01,7.10
2018,10,21,01,02,7.10
2018,10,21,01,03,7.10
2018,10,21,01,04,7.10
2018,10,21,01,05,7.10
2018,10,21,01,06,7.10
2018,10,21,01,07,7.10
2018,10,21,01,08,7.10
2018,10,21,01,09,7.10
2018,10,21,01,10,7.10
2018,10,21,01,11,7.10
2018,10,21,01,12,7.10
2018,10,21,01,13,7.00
2018,10,21,01,14,7.00
2018,10,21,01,15,7.00
2018,10,21,01,16,7.00
2018,10,21,01,17,7.00
2018,10,21,01,18,7.00
2018,10,21,01,19,7.00
2018,10,21,01,20,7.00
2018,10,21,01,21,7.00
2018,10,21,01,22,7.00
2018,10,21,01,23,6.90
2018,10,21,01,24,6.90
2018,10,21,01,25,6.90
2018,10,21,01,26,6.90
2018,10,21,01,27,6.90
2018,10,21,01,28,6.90
2018,10,21,01,29,6.90
2018,10,21,01,30,6.90
2018,10,21,01,31,6.90
2018,10,21,01,32,6.90
2018,10,21,01,33,6.90
2018,10,21,01,34,6.90
2018,10,21,01,35,6.90
2018,10,21,01,36,6.90
2018,10,21,01,37,6.90
2018,10,21,01,38,6.90
2018,10,21,01,39,6.90
2018,10,21,01,40,6.90
2018,10,21,01,41,7.00
2018,10,21,01,42,7.00
2018,10,21,01,43,7.00
2018,10,21,01,44,7.00
2018,10,21,01,45,6.90
2018,10,21,01,46,6.90
2018,10,21,01,47,6.90
2018,10,21,01,48,6.90
2018,10,21,01,49,6.90
2018,10,21,01,50,6.90
2018,10,21,01,51,6.90
2018,10,21,01,52,6.90
2018,10,21,01,53,6.90
2018,10,21,01,54,6.90
2018,10,21,01,55,6.90
2018,10,21,01,56,6.90
2018,10,21,01,57,6.90
2018,10,21,01,58,6.90
2018,10,21,01,59,6.90
2018,10,21,02,00,6.90
2018,10,21,02,01,6.90
2018,10,21,02,02,6.90
2018,10,21,02,03,6.90
2018,10,21,02,04,6.90
2018,10,21,02,05,6.90
2018,10,21,02,06,6.90
2018,10,21,02,07,6.90
2018,10,21,02,08,6.90
2018,10,21,02,09,6.90
2018,10,21,02,10,6.90
2018,10,21,02,11,6.90
2018,10,21,02,12,6.90
2018,10,21,02,13,6.80
2018,10,21,02,14,6.90
2018,10,21,02,15,6.90
2018,10,21,02,16,6.90
2018,10,21,02,17,6.90
2018,10,21,02,18,6.90
2018,10,21,02,19,6.90
2018,10,21,02,20,6.90
2018,10,21,02,21,6.90
2018,10,21,02,22,6.90
2018,10,21,02,23,6.90
2018,10,21,02,24,7.00
2018,10,21,02,25,7.00
2018,10,21,02,26,7.00
2018,10,21,02,27,7.00
2018,10,21,02,28,7.00
2018,10,21,02,29,6.90
2018,10,21,02,30,6.90
2018,10,21,02,31,6.90
2018,10,21,02,32,6.90
2018,10,21,02,33,6.90
2018,10,21,02,34,6.90
2018,10,21,02,35,6.90
2018,10,21,02,36,6.90
2018,10,21,02,37,6.80
2018,10,21,02,38,6.80
2018,10,21,02,39,6.80
2018,10,21,02,40,6.80
2018,10,21,02,41,6.90
2018,10,21,02,42,6.90
2018,10,21,02,43,6.90
2018,10,21,02,44,6.90
2018,10,21,02,45,6.90
2018,10,21,02,46,6.90
2018,10,21,02,47,6.90
2018,10,21,02,48,6.90
2018,10,21,02,49,6.90
2018,10,21,02,50,6.90
2018,10,21,02,51,6.90
2018,10,21,02,52,6.90
2018,10,21,02,53,6.90
2018,10,21,02,54,6.90
2018,10,21,02,55,6.90
2018,10,21,02,56,6.80
2018,10,21,02,57,6.80
2018,10,21,02,58,6.80
2018,10,21,02,59,6.80
2018,10,21,03,00,6.80
2018,10,21,03,01,6.80
2018,10,21,03,02,6.80
2018,10,21,03,03,6.70
2018,10,21,03,04,6.70
2018,10,21,03,05,6.70
2018,10,21,03,06,6.70
2018,10,21,03,07,6.70
2018,10,21,03,08,6.70
2018,10,21,03,09,6.70
2018,10,21,03,10,6.70
2018,10,21,03,11,6.60
2018,10,21,03,12,6.60
2018,10,21,03,13,6.60
2018,10,21,03,14,6.60
2018,10,21,03,15,6.60
2018,10,21,03,16,6.60
2018,10,21,03,17,6.60
2018,10,21,03,18,6.60
2018,10,21,03,19,6.60
2018,10,21,03,20,6.60
2018,10,21,03,21,6.60
2018,10,21,03,22,6.60
2018,10,21,03,23,6.60
2018,10,21,03,24,6.60
2018,10,21,03,25,6.60
2018,10,21,03,26,6.60
2018,10,21,03,27,6.60
2018,10,21,03,28,6.60
2018,10,21,03,29,6.60
2018,10,21,03,30,6.60
2018,10,21,03,31,6.60
2018,10,21,03,32,6.50
2018,10,21,03,33,6.50
2018,10,21,03,34,6.50
2018,10,21,03,35,6.50
2018,10,21,03,36,6.50
2018,10,21,03,37,6.50
2018,10,21,03,38,6.50
2018,10,21,03,39,6.50
2018,10,21,03,40,6.50
2018,10,21,03,41,6.50
2018,10,21,03,42,6.50
2018,10,21,03,43,6.40
2018,10,21,03,44,6.50
2018,10,21,03,45,6.50
2018,10,21,03,46,6.50
2018,10,21,03,47,6.50
2018,10,21,03,48,6.50
2018,10,21,03,49,6.50
2018,10,21,03,50,6.50
2018,10,21,03,51,6.50
2018,10,21,03,52,6.50
2018,10,21,03,53,6.50
2018,10,21,03,54,6.50
2018,10,21,03,55,6.50
2018,10,21,03,56,6.50
2018,10,21,03,57,6.40
2018,10,21,03,58,6.40
2018,10,21,03,59,6.40
2018,10,21,04,00,6.40
2018,10,21,04,01,6.40
2018,10,21,04,02,6.40
2018,10,21,04,03,6.40
2018,10,21,04,04,6.50
2018,10,21,04,05,6.50
2018,10,21,04,06,6.50
2018,10,21,04,07,6.60
2018,10,21,04,08,6.60
2018,10,21,04,09,6.60
2018,10,21,04,10,6.70
2018,10,21,04,11,6.70
2018,10,21,04,12,6.70
2018,10,21,04,13,6.70
2018,10,21,04,14,6.80
2018,10,21,04,15,6.80
2018,10,21,04,16,6.80
2018,10,21,04,17,6.80
2018,10,21,04,18,6.80
2018,10,21,04,19,6.80
2018,10,21,04,20,6.80
2018,10,21,04,21,6.80
2018,10,21,04,22,6.80
2018,10,21,04,23,6.80
2018,10,21,04,24,6.80
2018,10,21,04,25,6.80
2018,10,21,04,26,6.80
2018,10,21,04,27,6.80
2018,10,21,04,28,6.80
2018,10,21,04,29,6.80
2018,10,21,04,30,6.80
2018,10,21,04,31,6.80
2018,10,21,04,32,6.80
2018,10,21,04,33,6.90
2018,10,21,04,34,6.90
2018,10,21,04,35,6.90
2018,10,21,04,36,6.90
2018,10,21,04,37,6.90
2018,10,21,04,38,6.90
2018,10,21,04,39,6.90
2018,10,21,04,40,6.90
2018,10,21,04,41,6.90
2018,10,21,04,42,6.90
2018,10,21,04,43,6.90
2018,10,21,04,44,6.80
2018,10,21,04,45,6.90
2018,10,21,04,46,6.80
2018,10,21,04,47,6.80
2018,10,21,04,48,6.80
2018,10,21,04,49,6.80
2018,10,21,04,50,6.80
2018,10,21,04,51,6.80
2018,10,21,04,52,6.80
2018,10,21,04,53,6.80
2018,10,21,04,54,6.80
2018,10,21,04,55,6.80
2018,10,21,04,56,6.80
2018,10,21,04,57,6.80
2018,10,21,04,58,6.80
2018,10,21,04,59,6.80
2018,10,21,05,00,6.80
2018,10,21,05,01,6.80
2018,10,21,05,02,6.70
2018,10,21,05,03,6.70
2018,10,21,05,04,6.70
2018,10,21,05,05,6.70
2018,10,21,05,06,6.70
2018,10,21,05,07,6.60
2018,10,21,05,08,6.60
2018,10,21,05,09,6.60
2018,10,21,05,10,6.60
2018,10,21,05,11,6.60
2018,10,21,05,12,6.70
2018,10,21,05,13,6.70
2018,10,21,05,14,6.70
2018,10,21,05,15,6.70
2018,10,21,05,16,6.70
2018,10,21,05,17,6.70
2018,10,21,05,18,6.70
2018,10,21,05,19,6.70
2018,10,21,05,20,6.70
2018,10,21,05,21,6.70
2018,10,21,05,22,6.70
2018,10,21,05,23,6.70
2018,10,21,05,24,6.70
2018,10,21,05,25,6.60
2018,10,21,05,26,6.60
2018,10,21,05,27,6.60
2018,10,21,05,28,6.60
2018,10,21,05,29,6.50
2018,10,21,05,30,6.50
2018,10,21,05,31,6.50
2018,10,21,05,32,6.40
2018,10,21,05,33,6.40
2018,10,21,05,34,6.40
2018,10,21,05,35,6.40
2018,10,21,05,36,6.30
2018,10,21,05,37,6.30
2018,10,21,05,38,6.30
2018,10,21,05,39,6.30
2018,10,21,05,40,6.30
2018,10,21,05,41,6.20
2018,10,21,05,42,6.20
2018,10,21,05,43,6.20
2018,10,21,05,44,6.20
2018,10,21,05,45,6.20
2018,10,21,05,46,6.20
2018,10,21,05,47,6.20
2018,10,21,05,48,6.20
2018,10,21,05,49,6.20
2018,10,21,05,50,6.20
2018,10,21,05,51,6.20
2018,10,21,05,52,6.20
2018,10,21,05,53,6.20
2018,10,21,05,54,6.30
2018,10,21,05,55,6.30
2018,10,21,05,56,6.30
2018,10,21,05,57,6.30
2018,10,21,05,58,6.30
2018,10,21,05,59,6.30
2018,10,21,06,00,6.30
2018,10,21,06,01,6.30
2018,10,21,06,02,6.30
2018,10,21,06,03,6.30
2018,10,21,06,04,6.30
2018,10,21,06,05,6.30
2018,10,21,06,06,6.30
2018,10,21,06,07,6.30
2018,10,21,06,08,6.30
2018,10,21,06,09,6.30
2018,10,21,06,10,6.30
2018,10,21,06,11,6.30
2018,10,21,06,12,6.30
2018,10,21,06,13,6.30
2018,10,21,06,14,6.30
2018,10,21,06,15,6.30
2018,10,21,06,16,6.30
2018,10,21,06,17,6.30
2018,10,21,06,18,6.30
2018,10,21,06,19,6.30
2018,10,21,06,20,6.30
2018,10,21,06,21,6.30
2018,10,21,06,22,6.30
2018,10,21,06,23,6.30
2018,10,21,06,24,6.30
2018,10,21,06,25,6.20
2018,10,21,06,26,6.20
2018,10,21,06,27,6.20
2018,10,21,06,28,6.20
2018,10,21,06,29,6.20
2018,10,21,06,30,6.20
2018,10,21,06,31,6.10
2018,10,21,06,32,6.10
2018,10,21,06,33,6.10
2018,10,21,06,34,6.10
2018,10,21,06,35,6.00
2018,10,21,06,36,6.00
2018,10,21,06,37,6.00
2018,10,21,06,38,5.90
2018,10,21,06,39,5.90
2018,10,21,06,40,5.90
2018,10,21,06,41,5.90
2018,10,21,06,42,5.80
2018,10,21,06,43,5.80
2018,10,21,06,44,5.80
2018,10,21,06,45,5.80
2018,10,21,06,46,5.70
2018,10,21,06,47,5.70
2018,10,21,06,48,5.70
2018,10,21,06,49,5.70
2018,10,21,06,50,5.70
2018,10,21,06,51,5.60
2018,10,21,06,52,5.60
2018,10,21,06,53,5.60
2018,10,21,06,54,5.60
2018,10,21,06,55,5.60
2018,10,21,06,56,5.60
2018,10,21,06,57,5.60
2018,10,21,06,58,5.50
2018,10,21,06,59,5.50
2018,10,21,07,00,5.50
2018,10,21,07,01,5.40
2018,10,21,07,02,5.40
2018,10,21,07,03,5.40
2018,10,21,07,04,5.40
2018,10,21,07,05,5.40
2018,10,21,07,06,5.40
2018,10,21,07,07,5.40
2018,10,21,07,08,5.30
2018,10,21,07,09,5.30
2018,10,21,07,10,5.30
2018,10,21,07,11,5.30
2018,10,21,07,12,5.30
2018,10,21,07,13,5.30
2018,10,21,07,14,5.30
2018,10,21,07,15,5.30
2018,10,21,07,16,5.30
2018,10,21,07,17,5.30
2018,10,21,07,18,5.30
2018,10,21,07,19,5.30
2018,10,21,07,20,5.30
2018,10,21,07,21,5.30
2018,10,21,07,22,5.30
2018,10,21,07,23,5.30
2018,10,21,07,24,5.30
2018,10,21,07,25,5.30
2018,10,21,07,26,5.30
2018,10,21,07,27,5.20
2018,10,21,07,28,5.20
2018,10,21,07,29,5.20
2018,10,21,07,30,5.20
2018,10,21,07,31,5.20
2018,10,21,07,32,5.20
2018,10,21,07,33,5.20
2018,10,21,07,34,5.20
2018,10,21,07,35,5.20
2018,10,21,07,36,5.20
2018,10,21,07,37,5.20
2018,10,21,07,38,5.20
2018,10,21,07,39,5.20
2018,10,21,07,40,5.20
2018,10,21,07,41,5.10
2018,10,21,07,42,5.10
2018,10,21,07,43,5.10
2018,10,21,07,44,5.10
2018,10,21,07,45,5.10
2018,10,21,07,46,5.10
2018,10,21,07,47,5.10
2018,10,21,07,48,5.20
2018,10,21,07,49,5.20
2018,10,21,07,50,5.20
2018,10,21,07,51,5.20
2018,10,21,07,52,5.20
2018,10,21,07,53,5.20
2018,10,21,07,54,5.20
2018,10,21,07,55,5.20
2018,10,21,07,56,5.20
2018,10,21,07,57,5.20
2018,10,21,07,58,5.20
2018,10,21,07,59,5.20
2018,10,21,08,00,5.20
2018,10,21,08,01,5.10
2018,10,21,08,02,5.10
2018,10,21,08,03,5.10
2018,10,21,08,04,5.10
2018,10,21,08,05,5.10
2018,10,21,08,06,5.10
2018,10,21,08,07,5.10
2018,10,21,08,08,5.10
2018,10,21,08,09,5.10
2018,10,21,08,10,5.10
2018,10,21,08,11,5.10
2018,10,21,08,12,5.20
2018,10,21,08,13,5.20
2018,10,21,08,14,5.20
2018,10,21,08,15,5.20
2018,10,21,08,16,5.20
2018,10,21,08,17,5.20
2018,10,21,08,18,5.20
2018,10,21,08,19,5.20
2018,10,21,08,20,5.20
2018,10,21,08,21,5.20
2018,10,21,08,22,5.20
2018,10,21,08,23,5.30
2018,10,21,08,24,5.30
2018,10,21,08,25,5.30
2018,10,21,08,26,5.30
2018,10,21,08,27,5.30
2018,10,21,08,28,5.30
2018,10,21,08,29,5.30
2018,10,21,08,30,5.30
2018,10,21,08,31,5.40
2018,10,21,08,32,5.40
2018,10,21,08,33,5.40
2018,10,21,08,34,5.40
2018,10,21,08,35,5.40
2018,10,21,08,36,5.40
2018,10,21,08,37,5.40
2018,10,21,08,38,5.40
2018,10,21,08,39,5.50
2018,10,21,08,40,5.50
2018,10,21,08,41,5.50
2018,10,21,08,42,5.60
2018,10,21,08,43,5.60
2018,10,21,08,44,5.60
2018,10,21,08,45,5.70
2018,10,21,08,46,5.70
2018,10,21,08,47,5.70
2018,10,21,08,48,5.80
2018,10,21,08,49,5.80
2018,10,21,08,50,5.80
2018,10,21,08,51,5.90
2018,10,21,08,52,5.90
2018,10,21,08,53,5.90
2018,10,21,08,54,6.00
2018,10,21,08,55,6.00
2018,10,21,08,56,6.10
2018,10,21,08,57,6.10
2018,10,21,08,58,6.10
2018,10,21,08,59,6.10
2018,10,21,09,00,6.20
2018,10,21,09,01,6.20
2018,10,21,09,02,6.30
2018,10,21,09,03,6.30
2018,10,21,09,04,6.30
2018,10,21,09,05,6.40
2018,10,21,09,06,6.40
2018,10,21,09,07,6.50
2018,10,21,09,08,6.50
2018,10,21,09,09,6.50
2018,10,21,09,10,6.60
2018,10,21,09,11,6.60
2018,10,21,09,12,6.60
2018,10,21,09,13,6.70
2018,10,21,09,14,6.70
2018,10,21,09,15,6.70
2018,10,21,09,16,6.70
2018,10,21,09,17,6.80
2018,10,21,09,18,6.80
2018,10,21,09,19,6.80
2018,10,21,09,20,6.80
2018,10,21,09,21,6.90
2018,10,21,09,22,6.90
2018,10,21,09,23,7.00
2018,10,21,09,24,7.00
2018,10,21,09,25,7.10
2018,10,21,09,26,7.20
2018,10,21,09,27,7.20
2018,10,21,09,28,7.30
2018,10,21,09,29,7.30
2018,10,21,09,30,7.30
2018,10,21,09,31,7.30
2018,10,21,09,32,7.30
2018,10,21,09,33,7.40
2018,10,21,09,34,7.40
2018,10,21,09,35,7.40
2018,10,21,09,36,7.40
2018,10,21,09,37,7.50
2018,10,21,09,38,7.50
2018,10,21,09,39,7.60
2018,10,21,09,40,7.60
2018,10,21,09,41,7.70
2018,10,21,09,42,7.70
2018,10,21,09,43,7.80
2018,10,21,09,44,7.80
2018,10,21,09,45,7.90
2018,10,21,09,46,8.00
2018,10,21,09,47,8.00
2018,10,21,09,48,8.10
2018,10,21,09,49,8.10
2018,10,21,09,50,8.20
2018,10,21,09,51,8.30
2018,10,21,09,52,8.30
2018,10,21,09,53,8.40
2018,10,21,09,54,8.50
2018,10,21,09,55,8.50
2018,10,21,09,56,8.60
2018,10,21,09,57,8.70
2018,10,21,09,58,8.70
2018,10,21,09,59,8.80
2018,10,21,10,00,8.80
2018,10,21,10,01,8.90
2018,10,21,10,02,9.00
2018,10,21,10,03,9.10
2018,10,21,10,04,9.10
2018,10,21,10,05,9.20
2018,10,21,10,06,9.30
2018,10,21,10,07,9.40
2018,10,21,10,08,9.50
2018,10,21,10,09,9.50
2018,10,21,10,10,9.60
2018,10,21,10,11,9.70
2018,10,21,10,12,9.80
2018,10,21,10,13,9.90
2018,10,21,10,14,10.10
2018,10,21,10,15,10.20
2018,10,21,10,16,10.30
2018,10,21,10,17,10.40
2018,10,21,10,18,10.50
2018,10,21,10,19,10.60
2018,10,21,10,20,10.80
2018,10,21,10,21,10.90
2018,10,21,10,22,11.00
2018,10,21,10,23,11.00
2018,10,21,10,24,11.10
2018,10,21,10,25,11.20
2018,10,21,10,26,11.30
2018,10,21,10,27,11.40
2018,10,21,10,28,11.50
2018,10,21,10,29,11.60
2018,10,21,10,30,11.60
2018,10,21,10,31,11.70
2018,10,21,10,32,11.80
2018,10,21,10,33,11.90
2018,10,21,10,34,12.00
2018,10,21,10,35,12.10
2018,10,21,10,36,12.20
2018,10,21,10,37,12.30
2018,10,21,10,38,12.40
2018,10,21,10,39,12.50
2018,10,21,10,40,12.60
2018,10,21,10,41,12.70
2018,10,21,10,42,12.80
2018,10,21,10,43,12.80
2018,10,21,10,44,12.90
2018,10,21,10,45,13.00
2018,10,21,10,46,13.10
2018,10,21,10,47,13.10
2018,10,21,10,48,13.20
2018,10,21,10,49,13.20
2018,10,21,10,50,13.30
2018,10,21,10,51,13.30
2018,10,21,10,52,13.40
2018,10,21,10,53,13.50
2018,10,21,10,54,13.50
2018,10,21,10,55,13.60
2018,10,21,10,56,13.70
2018,10,21,10,57,13.80
2018,10,21,10,58,13.80
2018,10,21,10,59,13.80
2018,10,21,11,00,13.90
2018,10,21,11,01,14.00
2018,10,21,11,02,14.10
2018,10,21,11,03,14.20
2018,10,21,11,04,14.20
2018,10,21,11,05,14.30
2018,10,21,11,06,14.40
2018,10,21,11,07,14.50
2018,10,21,11,08,14.60
2018,10,21,11,09,14.70
2018,10,21,11,10,14.80
2018,10,21,11,11,14.80
2018,10,21,11,12,14.90
2018,10,21,11,13,14.90
2018,10,21,11,14,15.00
2018,10,21,11,15,15.10
2018,10,21,11,16,15.10
2018,10,21,11,17,15.10
2018,10,21,11,18,15.20
2018,10,21,11,19,15.30
2018,10,21,11,20,15.40
2018,10,21,11,21,15.40
2018,10,21,11,22,15.50
2018,10,21,11,23,15.60
2018,10,21,11,24,15.70
2018,10,21,11,25,15.70
2018,10,21,11,26,15.80
2018,10,21,11,27,15.90
2018,10,21,11,28,16.00
2018,10,21,11,29,16.00
2018,10,21,11,30,16.10
2018,10,21,11,31,16.20
2018,10,21,11,32,16.20
2018,10,21,11,33,16.20
2018,10,21,11,34,16.30
2018,10,21,11,35,16.30
2018,10,21,11,36,16.30
2018,10,21,11,37,16.30
2018,10,21,11,38,16.40
2018,10,21,11,39,16.50
2018,10,21,11,40,16.60
2018,10,21,11,41,16.60
2018,10,21,11,42,16.70
2018,10,21,11,43,16.80
2018,10,21,11,44,16.80
2018,10,21,11,45,16.80
2018,10,21,11,46,16.90
2018,10,21,11,47,16.90
2018,10,21,11,48,16.90
2018,10,21,11,49,16.90
2018,10,21,11,50,16.90
2018,10,21,11,51,17.00
2018,10,21,11,52,17.00
2018,10,21,11,53,17.10
2018,10,21,11,54,17.10
2018,10,21,11,55,17.10
2018,10,21,11,56,17.20
2018,10,21,11,57,17.20
2018,10,21,11,58,17.20
2018,10,21,11,59,17.30
2018,10,21,12,00,17.30
2018,10,21,12,01,17.30
2018,10,21,12,02,17.30
2018,10,21,12,03,17.30
2018,10,21,12,04,17.30
2018,10,21,12,05,17.30
2018,10,21,12,06,17.30
2018,10,21,12,07,17.40
2018,10,21,12,08,17.40
2018,10,21,12,09,17.40
2018,10,21,12,10,17.40
2018,10,21,12,11,17.40
2018,10,21,12,12,17.30
2018,10,21,12,13,17.30
2018,10,21,12,14,17.30
2018,10,21,12,15,17.30
2018,10,21,12,16,17.30
2018,10,21,12,17,17.30
2018,10,21,12,18,17.40
2018,10,21,12,19,17.40
2018,10,21,12,20,17.40
2018,10,21,12,21,17.40
2018,10,21,12,22,17.30
2018,10,21,12,23,17.30
2018,10,21,12,24,17.30
2018,10,21,12,25,17.30
2018,10,21,12,26,17.30
2018,10,21,12,27,17.40
2018,10,21,12,28,17.40
2018,10,21,12,29,17.40
2018,10,21,12,30,17.40
2018,10,21,12,31,17.40
2018,10,21,12,32,17.40
2018,10,21,12,33,17.40
2018,10,21,12,34,17.40
2018,10,21,12,35,17.40
2018,10,21,12,36,17.50
2018,10,21,12,37,17.50
2018,10,21,12,38,17.50
2018,10,21,12,39,17.60
2018,10,21,12,40,17.60
2018,10,21,12,41,17.60
2018,10,21,12,42,17.60
2018,10,21,12,43,17.60
2018,10,21,12,44,17.60
2018,10,21,12,45,17.60
2018,10,21,12,46,17.60
2018,10,21,12,47,17.60
2018,10,21,12,48,17.70
2018,10,21,12,49,17.70
2018,10,21,12,50,17.70
2018,10,21,12,51,17.70
2018,10,21,12,52,17.70
2018,10,21,12,53,17.70
2018,10,21,12,54,17.60
2018,10,21,12,55,17.60
2018,10,21,12,56,17.50
2018,10,21,12,57,17.50
2018,10,21,12,58,17.40
2018,10,21,12,59,17.40
2018,10,21,13,00,17.40
2018,10,21,13,01,17.30
2018,10,21,13,02,17.30
2018,10,21,13,03,17.30
2018,10,21,13,04,17.20
2018,10,21,13,05,17.20
2018,10,21,13,06,17.20
2018,10,21,13,07,17.20
2018,10,21,13,08,17.20
2018,10,21,13,09,17.20
2018,10,21,13,10,17.20
2018,10,21,13,11,17.20
2018,10,21,13,12,17.20
2018,10,21,13,13,17.10
2018,10,21,13,14,17.10
2018,10,21,13,15,17.10
2018,10,21,13,16,17.10
2018,10,21,13,17,17.10
2018,10,21,13,18,17.10
2018,10,21,13,19,17.10
2018,10,21,13,20,17.00
2018,10,21,13,21,17.00
2018,10,21,13,22,17.00
2018,10,21,13,23,17.00
2018,10,21,13,24,17.00
2018,10,21,13,25,17.00
2018,10,21,13,26,17.00
2018,10,21,13,27,17.00
2018,10,21,13,28,17.00
2018,10,21,13,29,17.00
2018,10,21,13,30,17.00
2018,10,21,13,31,17.00
2018,10,21,13,32,17.00
2018,10,21,13,33,17.00
2018,10,21,13,34,17.00
2018,10,21,13,35,17.00
2018,10,21,13,36,16.90
2018,10,21,13,37,16.90
2018,10,21,13,38,16.90
2018,10,21,13,39,16.90
2018,10,21,13,40,16.80
2018,10,21,13,41,16.80
2018,10,21,13,42,16.80
2018,10,21,13,43,16.80
2018,10,21,13,44,16.80
2018,10,21,13,45,16.80
2018,10,21,13,46,16.80
2018,10,21,13,47,16.80
2018,10,21,13,48,16.80
2018,10,21,13,49,16.80
2018,10,21,13,50,16.80
2018,10,21,13,51,16.80
2018,10,21,13,52,16.80
2018,10,21,13,53,16.80
2018,10,21,13,54,16.90
2018,10,21,13,55,16.90
2018,10,21,13,56,16.90
2018,10,21,13,57,16.90
2018,10,21,13,58,16.90
2018,10,21,13,59,16.90
2018,10,21,14,00,17.00
2018,10,21,14,01,17.00
2018,10,21,14,02,17.00
2018,10,21,14,03,17.00
2018,10,21,14,04,17.00
2018,10,21,14,05,17.00
2018,10,21,14,06,17.00
2018,10,21,14,07,17.00
2018,10,21,14,08,17.00
2018,10,21,14,09,17.00
2018,10,21,14,10,17.00
2018,10,21,14,11,17.00
2018,10,21,14,12,17.00
2018,10,21,14,13,17.00
2018,10,21,14,14,17.00
2018,10,21,14,15,17.00
2018,10,21,14,16,17.00
2018,10,21,14,17,17.00
2018,10,21,14,18,17.10
2018,10,21,14,19,17.10
2018,10,21,14,20,17.10
2018,10,21,14,21,17.10
2018,10,21,14,22,17.10
2018,10,21,14,23,17.10
2018,10,21,14,24,17.20
2018,10,21,14,25,17.20
2018,10,21,14,26,17.20
2018,10,21,14,27,17.20
2018,10,21,14,28,17.20
2018,10,21,14,29,17.30
2018,10,21,14,30,17.30
2018,10,21,14,31,17.30
2018,10,21,14,32,17.30
2018,10,21,14,33,17.40
2018,10,21,14,34,17.40
2018,10,21,14,35,17.40
2018,10,21,14,36,17.40
2018,10,21,14,37,17.40
2018,10,21,14,38,17.50
2018,10,21,14,39,17.50
2018,10,21,14,40,17.50
2018,10,21,14,41,17.50
2018,10,21,14,42,17.50
2018,10,21,14,43,17.50
2018,10,21,14,44,17.50
2018,10,21,14,45,17.50
2018,10,21,14,46,17.50
2018,10,21,14,47,17.50
2018,10,21,14,48,17.50
2018,10,21,14,49,17.50
2018,10,21,14,50,17.50
2018,10,21,14,51,17.40
2018,10,21,14,52,17.50
2018,10,21,14,53,17.50
2018,10,21,14,54,17.50
2018,10,21,14,55,17.50
2018,10,21,14,56,17.50
2018,10,21,14,57,17.50
2018,10,21,14,58,17.50
2018,10,21,14,59,17.50
2018,10,21,15,00,17.50
2018,10,21,15,01,17.50
2018,10,21,15,02,17.50
2018,10,21,15,03,17.60
2018,10,21,15,04,17.50
2018,10,21,15,05,17.50
2018,10,21,15,06,17.50
2018,10,21,15,07,17.50
2018,10,21,15,08,17.50
2018,10,21,15,09,17.50
2018,10,21,15,10,17.50
2018,10,21,15,11,17.50
2018,10,21,15,12,17.50
2018,10,21,15,13,17.50
2018,10,21,15,14,17.50
2018,10,21,15,15,17.50
2018,10,21,15,16,17.40
2018,10,21,15,17,17.40
2018,10,21,15,18,17.40
2018,10,21,15,19,17.30
2018,10,21,15,20,17.30
2018,10,21,15,21,17.30
2018,10,21,15,22,17.30
2018,10,21,15,23,17.30
2018,10,21,15,24,17.30
2018,10,21,15,25,17.30
2018,10,21,15,26,17.30
2018,10,21,15,27,17.20
2018,10,21,15,28,17.20
2018,10,21,15,29,17.10
2018,10,21,15,30,17.10
2018,10,21,15,31,17.10
2018,10,21,15,32,17.10
2018,10,21,15,33,17.10
2018,10,21,15,34,17.00
2018,10,21,15,35,17.00
2018,10,21,15,36,17.00
2018,10,21,15,37,16.90
2018,10,21,15,38,16.90
2018,10,21,15,39,16.90
2018,10,21,15,40,16.90
2018,10,21,15,41,16.90
2018,10,21,15,42,16.80
2018,10,21,15,43,16.80
2018,10,21,15,44,16.80
2018,10,21,15,45,16.80
2018,10,21,15,46,16.70
2018,10,21,15,47,16.70
2018,10,21,15,48,16.70
2018,10,21,15,49,16.60
2018,10,21,15,50,16.60
2018,10,21,15,51,16.60
2018,10,21,15,52,16.60
2018,10,21,15,53,16.50
2018,10,21,15,54,16.50
2018,10,21,15,55,16.50
2018,10,21,15,56,16.40
2018,10,21,15,57,16.40
2018,10,21,15,58,16.40
2018,10,21,15,59,16.30
2018,10,21,16,00,16.30
2018,10,21,16,01,16.30
2018,10,21,16,02,16.30
2018,10,21,16,03,16.20
2018,10,21,16,04,16.20
2018,10,21,16,05,16.20
2018,10,21,16,06,16.20
2018,10,21,16,07,16.20
2018,10,21,16,08,16.10
2018,10,21,16,09,16.10
2018,10,21,16,10,16.10
2018,10,21,16,11,16.10
2018,10,21,16,12,16.00
2018,10,21,16,13,16.00
2018,10,21,16,14,15.90
2018,10,21,16,15,15.90
2018,10,21,16,16,15.90
2018,10,21,16,17,15.90
2018,10,21,16,18,15.80
2018,10,21,16,19,15.80
2018,10,21,16,20,15.80
2018,10,21,16,21,15.70
2018,10,21,16,22,15.70
2018,10,21,16,23,15.70
2018,10,21,16,24,15.70
2018,10,21,16,25,15.70
2018,10,21,16,26,15.70
2018,10,21,16,27,15.60
2018,10,21,16,28,15.60
2018,10,21,16,29,15.60
2018,10,21,16,30,15.60
2018,10,21,16,31,15.60
2018,10,21,16,32,15.60
2018,10,21,16,33,15.60
2018,10,21,16,34,15.60
2018,10,21,16,35,15.60
2018,10,21,16,36,15.50
2018,10,21,16,37,15.50
2018,10,21,16,38,15.50
2018,10,21,16,39,15.50
2018,10,21,16,40,15.40
2018,10,21,16,41,15.40
2018,10,21,16,42,15.40
2018,10,21,16,43,15.40
2018,10,21,16,44,15.40
2018,10,21,16,45,15.40
2018,10,21,16,46,15.40
2018,10,21,16,47,15.40
2018,10,21,16,48,15.40
2018,10,21,16,49,15.40
2018,10,21,16,50,15.40
2018,10,21,16,51,15.40
2018,10,21,16,52,15.40
2018,10,21,16,53,15.30
2018,10,21,16,54,15.30
2018,10,21,16,55,15.30
2018,10,21,16,56,15.30
2018,10,21,16,57,15.30
2018,10,21,16,58,15.30
2018,10,21,16,59,15.20
2018,10,21,17,00,15.20
2018,10,21,17,01,15.20
2018,10,21,17,02,15.20
2018,10,21,17,03,15.20
2018,10,21,17,04,15.10
2018,10,21,17,05,15.10
2018,10,21,17,06,15.00
2018,10,21,17,07,15.00
2018,10,21,17,08,14.90
2018,10,21,17,09,14.80
2018,10,21,17,10,14.80
2018,10,21,17,11,14.70
2018,10,21,17,12,14.70
2018,10,21,17,13,14.60
2018,10,21,17,14,14.50
2018,10,21,17,15,14.50
2018,10,21,17,16,14.40
2018,10,21,17,17,14.40
2018,10,21,17,18,14.30
2018,10,21,17,19,14.30
2018,10,21,17,20,14.20
2018,10,21,17,21,14.20
2018,10,21,17,22,14.10
2018,10,21,17,23,14.10
2018,10,21,17,24,14.00
2018,10,21,17,25,14.00
2018,10,21,17,26,13.90
2018,10,21,17,27,13.90
2018,10,21,17,28,13.80
2018,10,21,17,29,13.80
2018,10,21,17,30,13.70
2018,10,21,17,31,13.70
2018,10,21,17,32,13.60
2018,10,21,17,33,13.60
2018,10,21,17,34,13.60
2018,10,21,17,35,13.60
2018,10,21,17,36,13.50
2018,10,21,17,37,13.50
2018,10,21,17,38,13.40
2018,10,21,17,39,13.40
2018,10,21,17,40,13.40
2018,10,21,17,41,13.30
2018,10,21,17,42,13.30
2018,10,21,17,43,13.30
2018,10,21,17,44,13.30
2018,10,21,17,45,13.30
2018,10,21,17,46,13.20